Date String (YYYY-MM-DD hh:mm:ss) UTC,Instrument flags,absolute air pressure of the measurement (hPa),sample flow rate (lpm),inlet stack bypass flow (lpm),air temperature of the measurement (°C),ambient temperature measured by the external sensor (°C),aerosol sample conditioner tube jacket temperature (°C),OPC LED temperature (°C),internal box temperature (°C),relative humidity of the measurement (%),span deviation,mass concentration of particles derived from Lorenz-Mie calculation of OPC scattering (μg/m³),mass concentration of particles derived from Lorenz-Mie calculation of OPC scattering (μg/m³),mass concentration of particles derived from Lorenz-Mie calculation of OPC scattering (μg/m³)
DateTimeUTC,F1_M11,P_M11,Q1_M11,Q2_M11,T1_M11,T2_M11,T3_M11,T4_M11,T5_M11,U1_M11,ZSPAN_M11,X0_M11,X2_M11,X1_M11
2023-11-29 02:00:00,SystemResetWarning,0833.1,5.01,000.00,025.0,023.9,000.0,033.3,026.3,9.6,0000.0,0008.98,0005.24,0004.84
2023-11-29 02:01:00,SystemResetWarning,0833.0,4.99,000.00,025.0,023.9,000.0,033.3,026.3,9.7,0000.0,0009.08,0005.27,0004.87
2023-11-29 02:02:00,SystemResetWarning,0833.0,5.00,000.00,025.0,023.9,000.0,033.3,026.3,9.7,0000.0,0009.12,0005.32,0004.91
2023-11-29 02:03:00,SystemResetWarning,0833.3,5.00,000.00,025.0,023.9,000.0,033.3,026.2,9.7,0000.0,0009.10,0005.32,0004.93
2023-11-29 02:04:00,SystemResetWarning,0833.2,5.00,000.00,024.9,023.9,000.0,033.3,026.2,9.7,0000.0,0009.18,0005.27,0004.92
2023-11-29 02:05:00,SystemResetWarning,0833.1,5.00,000.00,024.9,023.8,000.0,033.3,026.2,9.7,0000.0,0009.40,0005.28,0004.91
2023-11-29 02:06:00,SystemResetWarning,0832.8,5.00,000.00,024.9,023.8,000.0,033.3,026.2,9.7,0000.0,0009.62,0005.31,0004.93
2023-11-29 02:07:00,SystemResetWarning,0832.9,5.01,000.00,024.9,023.8,000.0,033.3,026.1,9.7,0000.0,0009.75,0005.33,0004.96
2023-11-29 02:08:00,SystemResetWarning,0832.9,5.00,000.00,024.8,023.8,000.0,033.3,026.1,9.7,0000.0,0010.01,0005.33,0004.97
2023-11-29 02:09:00,SystemResetWarning,0833.1,4.99,000.00,024.8,023.7,000.0,033.3,026.1,9.7,0000.0,0010.12,0005.38,0005.00
2023-11-29 02:10:00,SystemResetWarning,0833.2,4.99,000.00,024.8,023.7,000.0,033.2,026.1,9.7,0000.0,0010.16,0005.39,0005.02
2023-11-29 02:11:00,SystemResetWarning,0833.4,4.99,000.00,024.8,023.7,000.0,033.2,026.0,9.7,0000.0,0009.85,0005.41,0005.03
2023-11-29 02:12:00,SystemResetWarning,0833.4,5.00,000.00,024.8,023.7,000.0,033.2,026.0,9.7,0000.0,0009.88,0005.44,0005.04
2023-11-29 02:13:00,SystemResetWarning,0833.4,5.00,000.00,024.8,023.7,000.0,033.2,025.9,9.7,0000.0,0009.90,0005.46,0005.06
2023-11-29 02:14:00,SystemResetWarning,0833.4,5.01,000.00,024.7,023.6,000.0,033.2,025.9,9.7,0000.0,0010.02,0005.50,0005.10
2023-11-29 02:15:00,SystemResetWarning,0833.2,5.00,000.00,024.7,023.6,000.0,033.2,025.9,9.7,0000.0,0010.57,0005.56,0005.15
2023-11-29 02:16:00,SystemResetWarning,0833.2,4.99,000.00,024.7,023.6,000.0,033.2,025.9,9.7,0000.0,0010.35,0005.59,0005.19
2023-11-29 02:17:00,SystemResetWarning,0833.0,4.99,000.00,024.7,023.5,000.0,033.2,025.9,9.7,0000.0,0010.43,0005.57,0005.20
2023-11-29 02:18:00,SystemResetWarning,0833.1,4.99,000.00,024.7,023.5,000.0,033.1,025.9,9.7,0000.0,0010.80,0005.58,0005.21
2023-11-29 02:19:00,SystemResetWarning,0833.4,5.01,000.00,024.6,023.5,000.0,033.1,025.9,9.7,0000.0,0010.60,0005.59,0005.21
2023-11-29 02:20:00,SystemResetWarning,0832.9,5.01,000.00,024.6,023.5,000.0,033.1,025.8,9.7,0000.0,0010.53,0005.57,0005.20
2023-11-29 02:21:00,SystemResetWarning,0832.8,5.01,000.00,024.6,023.5,000.0,033.1,025.7,9.7,0000.0,0010.51,0005.55,0005.18
2023-11-29 02:22:00,SystemResetWarning,0832.8,5.00,000.00,024.6,023.4,000.0,033.1,025.7,9.7,0000.0,0010.58,0005.54,0005.17
2023-11-29 02:23:00,SystemResetWarning,0832.8,4.99,000.00,024.5,023.4,000.0,033.0,025.6,9.7,0000.0,0010.55,0005.52,0005.16
2023-11-29 02:24:00,SystemResetWarning,0832.9,4.99,000.00,024.5,023.3,000.0,033.0,025.6,9.7,0000.0,0010.54,0005.50,0005.14
2023-11-29 02:25:00,SystemResetWarning,0832.9,5.00,000.00,024.5,023.2,000.0,033.0,025.6,9.7,0000.0,0010.60,0005.49,0005.10
2023-11-29 02:26:00,SystemResetWarning,0832.9,5.01,000.00,024.4,023.2,000.0,033.0,025.5,9.7,0000.0,0009.95,0005.47,0005.06
2023-11-29 02:27:00,SystemResetWarning,0832.7,5.01,000.00,024.4,023.2,000.0,033.0,025.5,9.7,0000.0,0009.91,0005.43,0005.03
2023-11-29 02:28:00,SystemResetWarning,0832.8,5.00,000.00,024.4,023.2,000.0,033.0,025.5,9.7,0000.0,0009.69,0005.43,0005.01
2023-11-29 02:29:00,SystemResetWarning,0832.8,4.99,000.00,024.4,023.2,000.0,032.9,025.5,9.7,0000.0,0009.14,0005.42,0005.00
2023-11-29 02:30:00,SystemResetWarning,0832.8,4.99,000.00,024.4,023.2,000.0,032.9,025.5,9.8,0000.0,0009.12,0005.39,0004.98
2023-11-29 02:31:00,SystemResetWarning,0832.8,5.00,000.00,024.3,023.2,000.0,032.9,025.4,9.8,0000.0,0009.09,0005.36,0004.96
2023-11-29 02:32:00,SystemResetWarning,0832.9,5.00,000.00,024.3,023.1,000.0,032.9,025.4,9.8,0000.0,0009.17,0005.39,0004.95
2023-11-29 02:33:00,SystemResetWarning,0832.7,5.00,000.00,024.2,023.1,000.0,032.8,025.3,9.9,0000.0,0009.07,0005.38,0004.95
2023-11-29 02:34:00,SystemResetWarning,0832.7,5.00,000.00,024.2,023.1,000.0,032.8,025.4,9.9,0000.0,0009.16,0005.38,0004.95
2023-11-29 02:35:00,SystemResetWarning,0832.7,5.00,000.00,024.2,023.0,000.0,032.8,025.3,9.9,0000.0,0009.22,0005.41,0004.95
2023-11-29 02:36:00,SystemResetWarning,0832.7,5.00,000.00,024.2,022.9,000.0,032.8,025.2,10.0,0000.0,0009.18,0005.44,0004.99
2023-11-29 02:37:00,SystemResetWarning,0832.7,5.00,000.00,024.1,022.9,000.0,032.7,025.2,10.0,0000.0,0009.17,0005.48,0005.03
2023-11-29 02:38:00,SystemResetWarning,0832.6,5.00,000.00,024.1,022.9,000.0,032.7,025.2,10.0,0000.0,0009.32,0005.56,0005.07
2023-11-29 02:39:00,SystemResetWarning,0832.7,4.99,000.00,024.1,022.9,000.0,032.7,025.2,9.9,0000.0,0009.48,0005.64,0005.13
2023-11-29 02:40:00,SystemResetWarning,0832.6,5.00,000.00,024.1,022.8,000.0,032.7,025.1,9.9,0000.0,0009.57,0005.72,0005.17
2023-11-29 02:41:00,SystemResetWarning,0832.6,4.99,000.00,024.0,022.8,000.0,032.6,025.1,9.9,0000.0,0009.60,0005.78,0005.22
2023-11-29 02:42:00,SystemResetWarning,0832.6,5.00,000.00,024.0,022.8,000.0,032.6,025.0,10.0,0000.0,0009.69,0005.86,0005.28
2023-11-29 02:43:00,SystemResetWarning,0832.7,5.00,000.00,024.0,022.8,000.0,032.6,025.0,10.0,0000.0,0009.79,0005.91,0005.34
2023-11-29 02:44:00,SystemResetWarning,0832.7,5.00,000.00,023.9,022.8,000.0,032.6,024.9,10.0,0000.0,0009.81,0005.94,0005.37
2023-11-29 02:45:00,SystemResetWarning,0832.6,5.00,000.00,023.9,022.7,000.0,032.5,024.9,10.0,0000.0,0009.70,0005.92,0005.38
2023-11-29 02:46:00,SystemResetWarning,0832.7,5.00,000.00,023.9,022.7,000.0,032.5,024.9,10.0,0000.0,0009.70,0005.92,0005.40
2023-11-29 02:47:00,SystemResetWarning,0832.7,5.00,000.00,023.8,022.7,000.0,032.5,024.8,10.0,0000.0,0009.91,0005.91,0005.41
2023-11-29 02:48:00,SystemResetWarning,0832.7,5.00,000.00,023.8,022.7,000.0,032.4,024.8,10.1,0000.0,0009.84,0005.90,0005.41
2023-11-29 02:49:00,SystemResetWarning,0832.7,5.00,000.00,023.8,022.7,000.0,032.4,024.9,10.1,0000.0,0009.81,0005.91,0005.42
2023-11-29 02:50:00,SystemResetWarning,0832.6,5.00,000.00,023.8,022.6,000.0,032.4,024.9,10.1,0000.0,0009.77,0005.87,0005.39
2023-11-29 02:51:00,SystemResetWarning,0832.6,5.00,000.00,023.7,022.6,000.0,032.4,024.8,10.1,0000.0,0009.75,0005.82,0005.36
2023-11-29 02:52:00,SystemResetWarning,0832.6,5.01,000.00,023.7,022.6,000.0,032.3,024.8,10.1,0000.0,0009.74,0005.81,0005.37
2023-11-29 02:53:00,SystemResetWarning,0832.6,5.00,000.00,023.7,022.6,000.0,032.3,024.8,10.1,0000.0,0009.75,0005.79,0005.35
2023-11-29 02:54:00,SystemResetWarning,0832.5,4.99,000.00,023.7,022.5,000.0,032.3,024.8,10.1,0000.0,0009.82,0005.75,0005.32
2023-11-29 02:55:00,SystemResetWarning,0832.5,4.99,000.00,023.6,022.5,000.0,032.3,024.8,10.1,0000.0,0010.05,0005.77,0005.33
2023-11-29 02:56:00,SystemResetWarning,0832.5,5.00,000.00,023.6,022.5,000.0,032.2,024.8,10.2,0000.0,0010.20,0005.83,0005.35
2023-11-29 02:57:00,SystemResetWarning,0832.6,5.00,000.00,023.6,022.5,000.0,032.2,024.7,10.1,0000.0,0010.17,0005.82,0005.35
2023-11-29 02:58:00,SystemResetWarning,0832.5,5.00,000.00,023.6,022.4,000.0,032.2,024.7,10.1,0000.0,0009.87,0005.81,0005.34
2023-11-29 02:59:00,SystemResetWarning,0832.5,5.00,000.00,023.6,022.4,000.0,032.2,024.7,10.1,0000.0,0009.90,0005.80,0005.31
